User: anonymous   Login
Location: downtown San Diego
(32.7310°N, 117.1990°W)
Time: 01:11:09
(UTC-07:00)
Language:

Lacrosse 5 rocket - Orbit

View from above orbital plane
View from above orbital plane
View from above satellite
View from above satellite

Ground track
Ground track

The orbit data is extracted from the following two-line orbital elements,

1 28647U 05016B   19110.07579563 0.00000500  00000-0  28165-4 0    07
2 28647  57.0006 165.8785 0131000  99.1364 260.8636 15.05673198    00
Epoch (UTC): 20 April 2019 01:49:08
Eccentricity: 0.0131000
inclination: 57.0006°
perigee height: 458 km
apogee height: 640 km
right ascension of ascending node: 165.8785°
argument of perigee: 99.1364°
revolutions per day: 15.05673198
mean anomaly at epoch: 260.8636°
orbit number at epoch: 0

The dashed part of the orbit path shows where the satellite is in the earth's shadow,  

DLR